Regional Weather Roundup
Issued by NWS Midland/Odessa, TX

Home | Current Version | Previous Version | Text Only | Print | Product List | Glossary On
Versions: 1 2 3 4 5 6 7 8 9 10 11 12 13 14 15 16 17 18 19 20 21 22 23 24 25 26 27 28 29 30 31 32 33 34 35 36 37 38 39 40 41 42 43 44 45 46 47 48 49 50
000
ASUS44 KMAF 261610
RWRMAF
MIDLAND AREA WEATHER ROUNDUP
NATIONAL WEATHER SERVICE MIDLAND TX
1100 AM CDT WED JUL 26 2017

...IN SOUTHWEST TEXAS AND SOUTHEAST NEW MEXICO...

CITY           SKY/WX    TMP DP  RH WIND       PRES   REMARKS
ALPINE         SUNNY     83  60  44 SW7       30.27S
ANDREWS        FAIR      85  64  50 S13G21    30.14S
ARTESIA        SUNNY     88  61  40 S6G13     30.12S
BIG SPRING     SUNNY     86  63  45 S18       30.14S
CARLSBAD       SUNNY     85  65  51 SE6       30.10F
DRYDEN           N/A     85  66  53 E9        30.10S
FORT STOCKTON  SUNNY     86  66  51 SE13      30.11F
GUAD PASS      SUNNY     79  63  57 SW13      30.28S
HOBBS          MOSUNNY   82  63  51 S10       30.16S
MARFA          MOSUNNY   79  61  53 MISG        N/A
MIDLAND AIRPK  SUNNY     85  64  49 S13       30.13F
MIDLAND INTL   SUNNY     84  65  52 S14       30.12F
ODESSA         SUNNY     84  65  52 S15       30.14S
PECOS          SUNNY     89  64  41 E10       30.07F
PRESIDIO       FAIR      88  63  42 E3        30.12S
SEMINOLE       SUNNY     85  63  48 S12G18    30.15F
SNYDER         SUNNY     85  67  54 S15       30.12S
WINK           SUNNY     85  65  51 SE14      30.09S
$$
...OTHER STATIONS IN TEXAS...

CITY           SKY/WX    TMP DP  RH WIND       PRES   REMARKS
ABILENE        SUNNY     87  67  51 SW18G24   30.10S
AMARILLO       MOSUNNY   92  60  34 SW17G26   30.11F
AUSTIN         MOSUNNY   90  69  50 S15G24    30.11F
BROWNSVILLE    MOSUNNY   89  77  67 S14       30.08F HX 101
CORPUS CHRISTI MOSUNNY   89  73  59 S13G21    30.09R
DALLAS FTW     MOSUNNY   89  75  63 S17       30.07S
DEL RIO        SUNNY     85  66  53 SE13      30.07F
EL PASO        MOSUNNY   87  64  46 NW5       30.15F
HOUSTON INT    CLOUDY    88  73  61 SW6       30.12S
LUBBOCK        PTSUNNY   86  65  49 SW15      30.13F
SAN ANGELO     SUNNY     89  62  40 S16       30.12S
SAN ANTONIO    MOSUNNY   88  67  49 S10       30.13F
WACO           SUNNY     91  70  49 S22       30.11F
WICHITA FALLS  NOT AVBL
$$
...OTHER LOCATIONS IN NEW MEXICO...

CITY           SKY/WX    TMP DP  RH WIND       PRES   REMARKS
ALAMOGORDO     SUNNY     86  59  39 S8        30.18F
ALBUQUERQUE    CLOUDY    80  57  45 VRB6      30.28S
CANNON AFB     SUNNY     85  60  42 SW12      30.18F
CLOVIS         SUNNY     87  62  43 S12       30.17F
HOLLOMAN AFB   SUNNY     90  61  37 S7        30.18F
ROSWELL        SUNNY     89  58  34 SW5       30.12F
RUIDOSO        SUNNY     75  54  46 E3        30.38F
SANTA FE       CLOUDY    77  59  53 N8        30.32S
TRUTH OR CONSE SUNNY     85  52  32 N8        30.22F
TUCUMCARI      SUNNY     92  59  33 W14       30.10F
$$



USA.gov is the U.S. government's official web portal to all federal, state and local government web resources and services.